Weather in Sibirskiy

Russia / Novosibirsk Oblast     54°31′03″N   77°13′45″E
temp.,
°C
wind,
m/s
gust,
m/s
humid.,
%
clouds,
%
prec.,
mm/h
press.,
hPa
HPBL,
m
7 march, sun
sun701:00−11wsw5109212 0.0 1013151
04:00−15wsw45920 0.0 101467
07:00−16wsw44900 0.0 101646
10:00−15sw4691100 0.0 1018131
13:00−10sw578482 0.0 1019260
16:00−8ssw478567 0.0 1019285
19:00−9sse349083 0.0 101884
22:00−7sse71393100 0.0 1016312
8 march, mon
mon801:00−3s91692100 0.1 1013566
04:00−3s81593100 0.0 1010407
07:00−4s81492100 0.0 1008440
10:00−3ssw91689100 0.0 1005541
13:00−2ssw91585100 0.0 1004629
16:00−2wsw91396100 0.8 1004922
19:00−7wnw71387100 1.4 1009583
22:00−12w6139336 0.0 1015291
9 march, tue
tue901:00−14wsw5119442 0.0 1019246
04:00−16sw5109131 0.0 1020179
07:00−16ssw6129129 0.0 1021253
10:00−15ssw7138937 0.0 1021341
13:00−11sw7128742 0.0 1021450
16:00−9sw7118888 0.0 1021506
19:00−10ssw5119194 0.0 1020360
22:00−13ssw51092100 0.0 1020174
10 march, wed
wed1001:00−13ssw51090100 0.0 1018180
04:00−13ssw5118890 0.0 1017197
07:00−13s488895 0.0 1015145
10:00−12s5986100 0.0 1012205
13:00−9s4790100 0.0 1010311
16:00−6se4793100 0.0 1005364
19:00−3se51097100 1.9 999527
22:000sw311100100 4.8 997380
11 march, thu
thu1101:00−7w81293100 5.4 998409
04:00−10wsw71393100 0.1 1003373
07:00−9sw7139398 0.2 1006435
10:00−8sw101589100 0.2 1007803
13:00−9sw101686100 0.3 10091022
16:00−9wsw111687100 0.1 10121082
19:00−10wsw71489100 0.2 1015743
22:00−11sw61292100 0.1 1017575